RH
50 47 54 56 55 54 61 48 64 64 63 58 59 61 51 48 50 54 57 60 61 61 62 60 53 46 43 40 38 36 36 35 34 33 31 29 33 41 44 53 58 59 63 68
82 44 47 52 51 54 57 56 46 50 59 45 47 52 50 49 50 54 58 63 64 65 64 61 54 48 42 40 38 36 36 35 35 34 34 34 33 31 38 48 60 71 71 74
86 54 48 64 52 53 53 57 60 69 58 51 57 55 52 50 52 57 62 65 66 65 59 54 51 48 44 39 38 38 43 45 43 42 42 43 44 43 42 48 62 67 80 83
94 65 81 51 44 48 51 50 54 57 58 59 59 57 54 53 54 60 65 66 66 61 60 57 54 48 35 30 30 28 26 26 34 41 48 49 49 52 54 58 64 73 78 89
87 82 49 50 50 54 61 57 52 54 57 59 57 56 59 61 62 64 65 62 55 49 43 34 32 29 24 25 32 32 29 30 24 24 25 32 44 52 57 67 73 83 92 90
70 77 58 54 50 48 47 68 52 51 55 59 58 77 76 68 70 70 69 60 48 32 26 22 19 18 17 17 20 20 23 23 24 26 28 26 30 39 56 69 85 90 98 100
67 70 55 48 47 49 61 65 52 51 52 55 64 65 66 67 69 65 53 48 41 39 42 48 46 31 27 21 17 16 17 16 15 16 20 22 26 31 34 75 91 99 99 99
54 60 67 47 52 57 54 50 52 55 56 58 61 64 67 67 60 52 44 40 41 38 40 50 57 60 50 38 35 29 19 15 14 19 27 31 33 32 39 65 85 85 90 95
53 59 46 46 53 56 52 54 56 57 61 62 66 67 65 61 52 45 39 37 40 46 42 34 40 49 49 44 54 53 39 26 23 22 23 28 35 36 40 49 83 97 97 98
55 44 49 47 50 53 56 59 61 62 66 66 66 64 58 54 47 39 36 40 44 38 33 29 30 31 33 40 47 51 50 39 32 33 36 44 41 47 60 56 56 74 100 100
57 48 46 46 49 54 59 61 64 65 65 63 60 56 52 46 38 37 40 43 41 36 32 33 30 27 29 32 38 56 64 54 46 46 47 49 46 50 61 91 92 88 98 99
63 47 49 56 55 58 62 64 67 66 65 63 59 47 35 28 30 35 37 39 35 26 29 29 28 28 29 31 38 48 62 65 66 70 70 60 52 41 48 68 76 100 100 100
46 49 52 55 56 59 66 70 68 66 65 57 36 32 33 33 30 30 30 27 29 36 40 41 36 39 37 39 53 59 70 69 62 66 68 64 53 56 54 37 74 89 92 94
52 51 62 62 63 61 62 61 60 57 36 28 27 31 36 36 32 30 31 34 43 43 43 45 47 49 47 50 58 65 73 72 70 74 75 73 86 95 94 100 94 66 97 86
58 64 60 60 64 57 50 47 37 30 30 35 41 42 40 42 41 38 43 44 45 52 57 63 64 61 57 57 63 72 76 77 78 98 100 100 100 100 96 96 100 100 100 100
66 68 65 55 46 41 38 36 33 34 40 41 37 36 41 47 50 53 56 58 66 74 74 75 78 72 70 71 75 82 90 85 95 100 100 100 100 99 92 95 90 99 100 100
68 66 59 48 44 41 36 36 38 42 40 33 32 32 38 44 48 53 62 71 82 87 88 86 88 93 98 99 97 96 98 97 100 100 100 100 96 92 95 95 95 100 100 100
53 50 50 46 37 32 34 40 42 34 29 27 31 41 52 60 78 93 97 97 98 93 88 92 98 96 93 92 95 96 96 96 97 96 95 96 93 92 96 94 93 99 97 93
53 47 42 34 33 38 42 38 25 24 33 39 48 55 62 70 77 79 81 83 88 91 88 93 93 92 93 94 98 96 96 96 97 96 96 96 96 92 92 90 90 89 87 92
54 46 37 36 41 43 31 21 25 33 42 44 47 52 56 58 66 80 80 81 86 92 96 94 94 92 93 92 96 97 96 97 94 94 96 97 97 97 96 93 96 95 89 87
51 39 39 44 42 25 20 24 37 40 43 46 51 55 59 60 65 72 79 87 80 92 100 100 98 99 100 97 97 96 97 99 98 98 94 97 98 92 95 96 95 94 93 99
40 42 47 40 21 21 30 37 42 45 47 48 51 58 58 62 66 69 82 92 94 100 100 100 100 100 100 99 100 99 99 95 95 97 97 92 96 99 96 95 95 96 95 93
47 48 30 18 19 32 36 42 46 46 49 51 57 58 64 70 79 86 78 74 98 100 100 100 100 100 100 98 96 97 98 97 96 94 95 96 99 98 98 98 96 96 96 97
44 23 19 21 34 35 40 45 48 48 51 58 62 64 69 67 63 82 79 76 82 100 100 96 100 100 100 97 97 98 95 96 96 96 96 97 97 95 95 96 96 96 96 97
19 21 26 36 36 38 43 48 49 49 55 61 63 67 67 76 86 80 77 74 84 94 98 97 97 97 100 99 96 96 96 96 96 97 96 96 96 96 96 96 96 96 96 96
22 28 36 38 40 42 46 50 50 53 58 60 60 62 60 73 78 78 74 77 82 93 97 98 98 100 99 97 96 96 96 96 96 95 96 96 96 96 96 96 96 96 95 95
29 37 38 40 42 46 52 55 54 57 64 63 60 59 67 74 75 78 75 76 80 89 96 98 98 96 97 97 96 96 96 96 96 96 96 96 96 96 95 95 96 95 95 96
Wind_Speed
3 3 3 5 7 9 9 8 6 9 7 6 8 8 12 16 14 13 13 10 9 7 5 5 6 8 9 9 10 10 9 11 12 12 12 11 12 13 14 15 16 16 18 21
2 4 2 4 9 7 7 8 7 10 7 7 14 16 12 11 11 12 10 6 4 4 5 7 9 10 11 12 13 13 14 15 15 15 15 15 14 15 16 18 17 18 19 20
2 5 4 2 5 6 2 7 4 5 4 7 6 7 10 12 9 9 5 3 3 5 8 9 9 11 13 14 14 14 14 13 14 15 16 16 16 16 15 17 20 21 21 22
3 3 2 3 3 2 4 3 4 6 5 7 9 15 11 8 7 7 3 2 4 4 6 6 8 11 12 12 12 12 14 15 16 16 17 17 18 18 18 18 19 21 24 23
1 2 4 3 2 2 3 3 4 3 5 6 6 8 9 6 7 7 4 4 7 9 10 10 10 13 14 13 13 13 14 14 15 15 15 16 18 18 18 19 19 19 21 24
3 1 2 2 3 1 3 2 3 3 5 5 3 1 3 5 4 4 4 7 9 10 11 12 13 16 17 17 17 17 19 19 19 17 16 17 19 18 18 19 21 20 22 22
3 2 2 4 4 1 1 3 4 4 5 2 1 3 5 1 2 6 7 8 9 8 9 11 13 15 16 17 18 21 22 22 22 21 21 20 19 19 20 18 18 18 19 21
1 1 5 5 1 2 1 1 1 1 2 2 2 1 3 5 7 10 11 11 11 12 13 13 14 16 19 20 19 21 23 23 23 21 21 21 20 19 19 19 18 18 19 22
2 3 2 8 2 3 2 1 2 2 4 4 3 4 7 9 11 13 14 15 15 15 18 19 19 18 21 23 22 22 24 24 22 21 22 21 22 22 22 21 19 18 18 20
3 1 5 7 7 6 5 4 6 5 6 5 5 7 11 12 14 16 16 16 18 22 23 24 24 23 23 23 23 24 24 23 22 23 23 22 22 22 24 24 23 21 20 22
5 8 5 11 9 6 8 6 6 5 5 6 9 11 13 16 17 17 19 21 24 25 26 27 28 27 27 26 25 24 24 25 24 23 23 25 25 24 23 22 23 24 23 22
5 1 4 5 7 9 8 6 5 6 8 9 11 13 14 17 19 21 23 25 26 26 26 28 29 31 31 30 28 26 25 25 25 24 24 25 26 27 24 26 25 19 20 21
4 8 5 5 5 6 6 6 7 7 8 10 12 14 17 20 23 25 26 26 25 25 26 28 30 32 32 31 29 27 27 27 26 24 25 27 26 24 27 26 25 25 22 22
14 9 4 6 4 4 6 6 6 7 9 11 14 17 20 23 25 26 26 25 25 27 28 29 30 33 33 30 27 26 27 28 26 24 24 22 22 22 22 24 27 31 27 23
12 11 6 5 7 5 4 5 5 8 11 14 16 21 23 26 26 27 27 28 29 30 31 29 34 38 37 32 27 27 29 30 25 20 19 20 20 23 22 24 26 26 30 25
15 13 9 7 6 5 4 5 7 10 13 17 20 22 23 24 26 28 30 30 31 29 31 38 37 37 33 30 28 27 29 29 22 20 20 21 22 24 21 23 27 28 27 27
18 13 12 10 8 5 4 6 9 13 17 19 22 24 26 26 28 29 29 29 29 30 32 32 31 27 24 23 24 24 25 25 21 21 21 23 25 22 21 23 23 27 28 28
10 7 9 7 7 6 5 8 12 15 18 20 23 24 25 26 26 26 25 26 28 31 29 27 26 26 30 30 28 25 26 25 26 29 27 26 24 23 23 24 27 28 27 25
11 10 8 6 4 4 7 11 14 17 19 21 22 22 22 22 24 26 25 25 25 26 26 25 26 28 28 24 22 22 22 23 25 23 24 23 21 20 22 24 26 25 25 25
12 9 6 3 4 7 10 13 16 17 17 19 19 20 22 23 23 22 23 24 21 21 23 26 27 27 25 24 20 20 19 19 22 21 23 23 22 22 27 27 27 26 26 28
10 7 4 4 7 10 12 15 16 16 16 16 18 18 19 20 19 20 21 24 22 22 25 27 25 27 25 22 23 25 24 23 24 25 26 22 20 29 26 24 25 26 26 27
9 6 4 6 8 12 13 13 13 13 14 14 14 14 16 18 20 20 19 20 24 25 25 28 27 23 25 24 25 25 22 19 20 21 20 27 24 22 22 22 22 22 22 23
7 6 6 7 10 11 12 11 10 12 11 11 12 14 16 18 20 22 26 23 24 25 25 26 23 24 25 23 22 19 19 16 19 22 19 19 19 19 20 21 22 22 21 20
6 7 8 9 9 10 9 9 10 9 8 9 11 14 17 20 20 20 22 24 24 24 25 22 22 22 21 20 20 21 20 18 17 18 18 18 19 20 20 19 18 17 17 16
8 9 9 8 9 8 8 8 9 8 8 10 12 13 14 17 21 23 24 24 24 24 24 20 18 17 20 21 20 20 20 19 18 17 19 17 17 18 17 15 15 15 15 15
10 9 8 8 8 7 7 8 9 9 10 11 11 13 14 17 19 20 22 22 23 23 21 19 17 17 20 21 21 22 21 20 18 18 17 17 16 15 15 14 13 13 12 11
10 9 9 9 7 7 8 9 9 8 10 13 14 13 16 18 19 20 22 21 22 23 21 18 17 16 18 21 22 22 21 19 19 17 17 16 15 14 13 12 11 10 10 8
Wind_Direction
323 322 306 341 3 19 19 17 77 162 117 135 132 127 119 117 115 103 90 78 69 68 61 33 11 5 3 357 351 343 332 322 319 321 318 309 303 297 290 281 276 270 267 267
290 16 37 33 11 23 22 355 52 86 69 113 114 108 121 122 115 103 92 78 66 27 13 355 349 344 346 341 342 337 332 328 323 317 312 305 293 286 285 285 278 270 265 263
293 349 322 252 9 7 29 47 359 56 29 96 110 139 133 126 130 123 114 63 2 330 337 333 333 341 339 340 335 333 327 322 317 313 308 304 299 292 284 276 274 270 265 263
267 324 354 169 86 313 305 42 39 104 58 53 78 103 111 118 136 126 143 217 254 304 300 312 325 321 324 326 319 320 317 317 312 311 309 307 303 300 293 283 273 268 266 264
97 269 154 153 98 26 19 91 42 79 108 92 103 127 118 159 165 199 231 270 301 310 310 316 307 307 309 313 312 317 312 310 314 316 312 310 305 301 298 292 285 277 270 264
345 10 294 109 125 52 304 186 81 45 96 137 177 167 161 182 174 196 247 278 297 305 309 309 305 302 303 305 313 315 315 320 320 319 316 314 309 307 304 302 299 290 276 268
302 270 316 128 128 310 60 209 73 47 92 86 100 123 163 223 237 289 304 306 305 307 293 286 288 291 292 294 302 305 309 311 314 315 316 316 316 313 307 301 297 299 294 281
58 283 289 151 130 156 152 101 80 38 60 48 89 87 295 295 307 312 315 315 307 304 305 302 303 304 308 310 312 305 307 306 305 307 309 311 308 308 302 302 298 296 294 292
198 224 172 192 102 170 182 151 254 259 278 276 281 303 297 308 312 313 314 313 312 305 302 306 310 311 307 307 306 304 303 305 308 309 307 309 310 312 310 306 306 302 290 293
8 249 190 218 224 230 247 227 249 248 242 278 287 292 300 305 308 309 311 311 304 305 310 311 310 309 304 302 299 298 298 301 302 302 305 304 304 307 308 312 311 305 307 297
252 271 216 239 217 229 242 240 251 265 272 290 297 302 304 307 310 310 309 306 308 312 312 311 312 310 308 307 302 294 291 295 297 298 299 298 300 304 308 306 302 302 300 289
230 304 135 141 182 221 234 245 252 270 292 304 304 305 305 304 306 306 305 305 306 308 308 309 311 311 309 308 304 297 291 290 293 296 295 296 298 299 297 297 302 297 299 294
231 204 212 186 196 213 212 234 255 271 283 294 299 300 301 303 307 306 304 305 307 308 306 308 312 312 312 307 301 293 288 289 291 290 290 294 294 294 298 296 304 306 301 301
232 222 202 219 239 217 216 241 266 283 294 301 305 305 307 307 307 305 304 305 301 300 303 309 313 315 317 313 304 288 283 284 286 287 292 297 302 303 310 301 302 304 310 312
219 209 198 196 209 212 235 258 282 301 309 310 309 308 311 309 307 305 303 301 303 305 307 307 308 309 312 309 293 285 282 284 285 282 277 284 288 294 304 299 296 298 305 310
198 209 203 199 199 213 247 276 295 306 308 309 309 311 310 306 303 302 303 305 306 305 298 303 306 307 308 304 298 288 280 281 278 273 276 282 289 300 299 293 299 298 299 301
177 181 190 196 206 222 255 279 293 304 309 311 311 312 311 311 309 311 313 313 311 310 312 316 319 320 314 308 308 301 287 282 274 272 278 287 299 302 302 300 294 295 296 299
193 178 183 192 203 216 255 293 306 310 313 317 317 318 320 322 324 326 322 316 312 312 316 320 316 313 310 308 303 292 286 281 272 278 290 292 296 300 299 298 294 296 302 304
175 166 169 182 214 272 302 309 313 319 323 321 320 322 323 322 321 322 325 328 330 330 330 325 321 318 321 321 319 309 296 290 283 289 292 291 290 290 296 301 300 300 302 303
170 176 183 212 281 304 313 318 320 321 323 324 327 332 333 335 336 336 333 329 331 326 324 320 320 320 322 322 322 318 314 302 297 299 302 298 292 294 301 301 297 297 297 296
181 187 209 279 301 312 321 324 323 324 330 332 337 339 342 348 347 341 340 338 343 333 321 319 323 318 321 324 317 309 303 301 302 301 302 297 294 300 298 296 295 294 296 293
191 207 253 287 305 316 322 321 323 329 333 337 340 345 349 351 348 345 346 336 329 327 327 325 327 330 323 320 315 312 311 308 302 297 287 298 302 302 303 302 301 301 297 295
214 243 270 296 310 315 320 321 328 332 333 335 344 348 351 348 347 343 338 341 332 331 325 326 330 328 331 326 326 326 323 312 301 304 307 308 308 307 305 302 299 299 302 304
235 262 285 301 308 315 318 323 327 327 329 336 342 345 347 345 345 344 334 336 337 334 327 333 331 332 333 334 333 327 326 324 320 317 315 310 305 306 308 304 302 302 303 303
256 273 286 295 304 312 317 320 317 319 328 331 341 343 345 347 337 339 340 341 343 340 338 340 340 343 345 340 339 336 331 326 324 315 311 315 310 314 314 308 305 308 307 309
266 276 284 295 301 304 306 307 310 317 322 328 340 337 341 343 338 337 340 343 346 348 342 341 343 352 345 344 343 341 340 339 337 334 330 326 320 318 319 315 310 312 314 315
262 270 279 284 290 295 300 298 305 314 318 325 332 339 341 337 338 338 340 342 349 348 344 341 341 344 346 342 343 344 345 346 346 342 341 340 337 331 324 325 323 320 322 323